Location: Roanoke
(37.2710°N, 79.9420°W)
Time: 05:38:42
(UTC-05:00)

S-56A Canister/Altair - Pass Details

Date: 22 November 2019
Orbit: 633 x 2500 km, 38.9° (Epoch: 12 December)

Event Time Altitude Azimuth Distance (km) Brightness Sun altitude
Rises 16:34:49 0° 248° (WSW) 5,751 14.5 4.6°
Reaches altitude 10° 16:38:58 10° 248° (WSW) 4,521 13.9 3.9°
Maximum altitude 16:50:46 82° 163° (SSE) 1,526 9.2 1.8°
Drops below altitude 10° 16:58:24 10° 77° (ENE) 3,018 10.0 0.4°
Sets 17:00:40 0° 76° (ENE) 3,781 10.4 0.0°
